Temp
12 12 11 11 11 10 10 9 9 8 9 9 9 9 9 9 9 9 8 8 8 9 9 9 9 10 10 11 11 12 12 12 14 15 17 17 17 16 17 16 15 16 16 16 14
12 12 11 11 11 10 10 10 9 9 9 9 9 9 9 9 9 9 8 8 8 9 9 10 10 10 10 11 11 11 11 13 14 15 16 16 18 16 16 14 14 14 15 15 14
12 12 11 11 11 11 10 10 9 9 9 9 9 9 9 10 9 9 9 9 9 10 10 10 10 10 10 10 11 10 11 13 14 14 15 15 16 16 15 15 16 15 15 14 14
12 12 11 11 11 11 10 10 10 9 9 9 9 10 10 10 8 9 9 9 9 9 9 10 10 10 9 9 10 10 11 13 14 14 14 15 17 16 16 16 16 17 18 15 13
12 12 11 11 11 11 11 10 10 10 9 9 10 10 10 10 9 9 9 9 9 9 9 9 10 9 9 9 10 11 12 13 14 14 14 15 16 17 15 16 16 16 15 15 13
12 12 11 11 11 11 11 11 10 10 10 10 10 10 10 9 10 9 9 9 9 9 9 9 9 9 9 9 10 10 11 12 14 14 14 14 14 15 16 16 14 13 13 12 12
12 11 11 11 12 12 11 11 11 11 11 10 10 10 10 10 10 10 10 9 9 9 10 9 9 10 9 9 10 10 11 12 13 14 14 15 14 15 15 14 12 11 11 11 12
11 12 11 11 12 12 12 12 12 11 11 11 10 10 10 10 10 10 10 10 10 10 10 10 10 10 10 10 10 10 9 10 12 13 14 14 15 15 16 15 11 11 12 12 12
12 12 12 12 12 12 12 12 12 12 11 11 11 10 11 11 11 11 10 10 11 10 10 10 10 10 10 9 8 8 9 10 12 12 13 13 14 12 14 14 12 11 12 11 12
12 12 12 12 12 12 12 13 13 12 12 11 11 10 12 11 11 11 11 11 11 11 11 10 10 7 7 8 9 9 10 10 11 12 12 12 13 14 12 14 13 12 11 11 11
12 12 12 12 12 12 12 13 13 12 12 11 11 10 11 11 11 11 11 11 11 10 8 9 6 7 7 8 9 9 9 9 11 11 12 12 13 14 13 14 14 16 12 12 13
12 12 12 11 12 12 12 12 10 10 10 12 11 11 11 10 10 11 11 11 9 7 7 7 7 8 8 9 9 9 9 10 10 10 11 11 12 13 12 12 14 16 13 14 13
12 12 12 12 12 11 11 10 10 10 9 12 11 11 11 10 10 11 11 10 8 7 7 8 9 9 10 9 9 10 10 10 10 9 11 11 12 13 12 12 13 13 14 13 14
12 12 12 12 11 11 10 10 10 9 6 10 11 12 11 11 10 11 11 10 9 9 7 8 9 9 10 10 9 9 9 9 10 10 10 10 11 11 12 12 11 13 14 15 17
12 12 12 12 11 11 10 10 10 9 7 10 11 12 12 11 11 11 11 10 9 9 8 9 8 8 9 9 9 10 9 9 9 8 9 9 9 11 10 12 12 13 14 16 15
12 12 12 12 11 11 10 10 9 6 7 9 11 8 9 10 10 11 11 10 10 8 7 7 8 8 9 8 9 9 9 7 5 7 8 8 8 10 11 12 13 13 15 17 17
13 12 12 11 11 10 10 10 5 7 9 11 9 8 7 8 9 9 8 7 7 7 6 6 9 8 8 9 9 8 7 7 8 7 9 6 7 10 11 10 11 12 12 13 15
13 13 12 12 11 11 10 8 9 11 9 8 8 7 9 8 10 8 8 7 8 7 5 6 7 9 8 9 8 8 8 7 9 7 8 7 8 11 10 10 10 10 10 12 13
13 12 12 11 11 10 10 6 10 9 10 9 8 10 9 10 9 8 8 8 8 8 8 6 7 8 8 8 8 8 8 7 7 5 6 8 8 10 9 9 9 10 10 10 12
13 13 11 11 11 10 7 9 9 9 8 8 10 9 9 8 8 8 8 9 9 8 8 8 6 8 8 8 7 8 7 8 6 9 8 8 7 9 10 10 7 7 8 9 8
12 12 11 10 11 10 7 7 8 9 9 8 9 8 8 8 8 8 9 9 8 8 7 7 7 8 7 8 8 7 7 6 6 6 8 7 9 7 9 8 7 6 8 8 8
12 9 10 10 9 4 7 7 9 8 8 8 7 7 7 8 8 8 8 9 9 9 9 7 6 6 8 7 6 7 7 6 7 8 5 5 7 8 7 6 6 7 8 8 8
11 11 9 9 8 6 7 8 9 7 7 6 7 6 7 7 9 7 8 9 9 7 7 7 5 5 8 8 6 7 6 6 5 4 5 7 10 7 6 6 8 8 9 9 8
11 6 9 8 8 8 9 9 9 8 8 8 7 7 7 7 6 7 8 9 8 8 8 8 5 7 7 8 8 7 7 5 6 4 7 6 9 10 8 7 9 9 9 8 8
10 7 7 7 7 7 8 8 9 10 7 7 7 6 6 7 8 6 6 8 7 7 6 5 5 4 6 5 5 7 7 6 4 7 7 7 6 9 7 7 9 10 10 7 7
9 7 6 6 6 6 7 7 8 8 7 7 6 8 4 6 7 9 7 8 8 5 5 3 5 5 5 6 5 5 6 5 5 6 5 6 6 8 8 7 6 7 7 7 7
7 6 7 6 4 5 5 7 8 8 10 9 7 6 5 6 9 10 9 9 8 6 4 3 3 4 5 5 5 7 7 5 5 4 6 5 8 6 6 6 7 9 7 8 8
Height
1544 1544 1544 1543 1540 1536 1534 1531 1529 1525 1522 1520 1517 1515 1514 1512 1512 1511 1509 1508 1504 1502 1501 1500 1500 1499 1498 1499 1499 1499 1502 1499 1491 1491 1487 1491 1492 1496 1498 1500 1502 1503 1503 1504 1509
1543 1543 1543 1542 1539 1536 1535 1532 1530 1527 1524 1521 1518 1516 1515 1513 1512 1511 1512 1509 1505 1501 1501 1500 1499 1497 1498 1497 1498 1496 1502 1496 1491 1487 1485 1485 1489 1494 1497 1498 1502 1501 1502 1504 1508
1543 1543 1542 1541 1539 1537 1536 1534 1531 1528 1525 1523 1520 1517 1515 1514 1513 1511 1510 1508 1504 1501 1499 1499 1497 1497 1496 1497 1497 1497 1498 1494 1491 1488 1487 1485 1491 1494 1495 1499 1495 1494 1497 1502 1505
1542 1542 1541 1540 1539 1538 1537 1534 1532 1529 1527 1524 1521 1518 1516 1515 1518 1511 1509 1507 1504 1501 1501 1499 1497 1496 1496 1497 1497 1498 1494 1494 1492 1490 1489 1487 1490 1493 1495 1496 1495 1495 1496 1499 1503
1542 1541 1541 1539 1539 1538 1536 1535 1533 1530 1528 1525 1523 1520 1518 1517 1515 1512 1509 1506 1504 1502 1501 1499 1498 1498 1497 1497 1496 1496 1494 1493 1492 1490 1489 1487 1486 1490 1493 1495 1496 1496 1496 1498 1502
1542 1541 1540 1539 1538 1538 1537 1535 1533 1530 1528 1526 1524 1522 1519 1518 1515 1512 1508 1506 1504 1503 1502 1501 1500 1499 1498 1497 1496 1495 1494 1493 1493 1492 1491 1488 1488 1493 1495 1497 1498 1499 1499 1503 1507
1541 1540 1539 1538 1538 1537 1536 1535 1533 1531 1528 1526 1524 1522 1520 1520 1515 1512 1509 1506 1504 1503 1502 1501 1500 1500 1498 1496 1495 1494 1495 1492 1493 1492 1490 1489 1497 1496 1493 1498 1501 1502 1501 1506 1508
1541 1539 1538 1538 1537 1536 1535 1534 1532 1531 1528 1526 1524 1522 1520 1518 1515 1513 1510 1507 1505 1503 1502 1501 1500 1499 1498 1496 1495 1495 1497 1499 1492 1491 1491 1493 1494 1492 1489 1498 1504 1506 1503 1505 1507
1541 1539 1537 1537 1536 1536 1535 1533 1532 1530 1528 1526 1524 1522 1521 1519 1516 1513 1510 1507 1504 1502 1501 1500 1500 1499 1497 1499 1500 1502 1502 1501 1494 1490 1490 1491 1491 1493 1486 1494 1508 1510 1501 1505 1507
1542 1540 1537 1537 1536 1535 1533 1532 1531 1530 1527 1525 1524 1526 1522 1519 1516 1513 1511 1508 1505 1502 1501 1500 1499 1501 1503 1502 1507 1506 1502 1500 1499 1493 1491 1494 1493 1489 1490 1488 1508 1501 1502 1505 1507
1542 1541 1539 1537 1536 1534 1533 1530 1532 1532 1529 1529 1529 1526 1524 1521 1517 1515 1511 1509 1506 1505 1506 1502 1507 1509 1507 1506 1505 1504 1504 1504 1496 1494 1494 1494 1491 1489 1488 1489 1491 1495 1502 1504 1504
1543 1541 1540 1538 1536 1535 1534 1531 1533 1535 1531 1528 1527 1525 1523 1522 1519 1516 1513 1511 1510 1512 1507 1508 1509 1506 1504 1503 1504 1503 1503 1502 1498 1495 1494 1495 1491 1486 1487 1485 1484 1488 1499 1502 1506
1543 1541 1540 1538 1537 1536 1534 1534 1533 1532 1532 1528 1527 1525 1524 1523 1520 1517 1515 1513 1512 1512 1513 1512 1508 1504 1502 1504 1504 1504 1504 1504 1504 1499 1496 1495 1493 1486 1484 1484 1487 1492 1499 1504 1503
1544 1542 1540 1538 1539 1536 1535 1534 1533 1533 1539 1532 1526 1526 1525 1522 1520 1517 1516 1516 1513 1514 1512 1511 1507 1507 1504 1504 1505 1506 1505 1503 1502 1503 1505 1501 1502 1490 1484 1484 1484 1487 1492 1491 1494
1544 1542 1541 1538 1538 1537 1537 1534 1533 1534 1561 1531 1527 1526 1523 1524 1522 1518 1516 1514 1515 1515 1516 1512 1509 1509 1507 1506 1505 1506 1504 1504 1504 1507 1507 1505 1508 1488 1487 1484 1480 1478 1481 1484 1485
1543 1542 1541 1540 1538 1538 1536 1534 1535 1547 1561 1536 1529 1528 1525 1522 1522 1519 1517 1516 1514 1514 1514 1514 1510 1509 1508 1507 1505 1504 1504 1507 1513 1513 1516 1510 1510 1491 1484 1477 1474 1472 1474 1476 1477
1543 1542 1540 1540 1539 1537 1536 1535 1549 1558 1541 1535 1534 1531 1531 1528 1522 1522 1523 1522 1524 1526 1525 1517 1511 1510 1508 1507 1506 1506 1511 1519 1517 1518 1512 1515 1515 1486 1474 1473 1471 1471 1469 1470 1471
1542 1541 1540 1539 1538 1537 1536 1537 1550 1540 1541 1536 1535 1532 1531 1529 1525 1524 1525 1529 1523 1525 1533 1530 1525 1512 1510 1510 1510 1511 1513 1520 1517 1520 1515 1513 1505 1483 1470 1468 1468 1469 1470 1467 1468
1540 1539 1538 1538 1537 1537 1538 1552 1541 1539 1536 1537 1535 1532 1532 1529 1530 1526 1525 1527 1524 1522 1526 1531 1523 1512 1511 1510 1512 1512 1514 1516 1519 1526 1521 1505 1493 1478 1468 1469 1469 1467 1467 1469 1465
1539 1537 1536 1536 1536 1537 1539 1539 1535 1532 1534 1536 1536 1536 1535 1532 1531 1530 1526 1521 1521 1521 1522 1524 1530 1513 1511 1511 1512 1512 1514 1515 1522 1513 1511 1503 1501 1489 1474 1472 1469 1466 1464 1465 1464
1538 1535 1535 1535 1535 1536 1544 1538 1533 1532 1532 1535 1535 1535 1536 1534 1532 1531 1525 1520 1519 1520 1522 1523 1526 1516 1513 1512 1512 1516 1515 1518 1519 1518 1509 1509 1493 1479 1474 1471 1470 1465 1463 1462 1461
1536 1536 1535 1535 1538 1536 1537 1532 1531 1530 1531 1532 1533 1534 1533 1531 1531 1529 1527 1521 1518 1518 1520 1522 1526 1524 1512 1510 1510 1512 1511 1513 1515 1511 1519 1517 1494 1469 1469 1469 1468 1463 1463 1461 1461
1534 1534 1533 1534 1538 1537 1532 1531 1530 1530 1530 1532 1533 1533 1532 1532 1530 1525 1522 1518 1518 1518 1520 1521 1526 1532 1510 1511 1511 1510 1508 1509 1514 1516 1511 1508 1478 1466 1468 1467 1465 1463 1460 1459 1460
1534 1534 1532 1532 1532 1533 1531 1529 1528 1527 1528 1528 1528 1529 1531 1531 1530 1525 1521 1516 1517 1519 1519 1518 1522 1519 1521 1506 1504 1505 1503 1506 1506 1514 1498 1490 1474 1463 1467 1467 1462 1460 1459 1458 1458
1532 1531 1530 1532 1530 1531 1532 1530 1527 1526 1527 1526 1526 1526 1527 1529 1527 1528 1522 1517 1515 1516 1518 1520 1521 1519 1507 1505 1506 1499 1494 1497 1503 1492 1490 1477 1478 1460 1464 1462 1458 1456 1455 1455 1455
1530 1530 1530 1530 1530 1530 1529 1527 1525 1523 1524 1523 1525 1520 1524 1525 1519 1518 1517 1516 1513 1515 1516 1518 1516 1514 1508 1498 1502 1497 1487 1488 1486 1484 1486 1481 1468 1459 1457 1455 1453 1452 1451 1451 1451
1527 1528 1527 1528 1528 1528 1525 1521 1520 1521 1517 1517 1517 1520 1522 1515 1510 1508 1510 1509 1508 1509 1513 1515 1517 1517 1508 1500 1498 1488 1472 1477 1476 1476 1471 1476 1457 1456 1453 1451 1449 1447 1447 1446 1447
Wind_Speed
9 9 9 8 12 17 20 21 16 16 15 14 14 12 12 10 11 15 15 13 9 10 12 9 3 5 3 4 6 4 1 3 6 10 8 7 4 4 7 10 5 12 7 7 32
7 6 6 6 11 16 17 18 16 16 15 14 13 12 10 7 7 15 17 13 14 14 10 5 1 3 2 3 4 3 2 2 2 3 4 8 4 9 7 8 7 11 11 15 34
3 4 4 5 10 14 15 15 16 16 16 14 14 11 11 11 3 13 17 16 16 13 7 4 2 2 1 1 2 3 3 2 6 10 2 10 5 1 6 3 11 18 21 27 39
2 2 4 5 8 11 13 13 14 16 16 15 13 13 10 11 3 16 16 16 14 9 5 3 2 1 2 1 2 0 4 3 6 10 3 4 17 1 6 3 6 11 21 32 42
3 4 5 4 5 7 10 13 13 15 16 15 12 13 11 8 9 17 16 12 11 10 8 7 8 4 1 1 2 1 2 3 7 7 3 2 9 11 8 11 12 12 22 33 42
6 5 6 4 4 6 8 11 13 13 14 13 12 9 13 6 16 16 15 10 9 9 8 8 6 5 1 2 1 3 4 7 4 9 1 2 2 15 9 11 5 13 23 30 37
7 6 6 5 4 5 7 10 12 14 11 12 10 10 6 11 17 16 12 10 9 8 5 7 8 6 5 2 6 2 2 2 3 2 3 7 1 18 25 8 5 13 21 26 32
9 8 6 5 4 5 7 9 11 12 10 9 10 7 3 16 15 15 14 9 8 6 7 5 7 6 3 6 3 2 4 3 3 4 2 9 13 9 21 5 7 15 18 23 30
10 8 6 4 4 5 8 9 10 10 11 6 12 4 4 15 16 16 17 15 8 7 4 4 4 3 3 3 3 5 1 0 4 3 2 3 2 4 19 16 12 15 16 18 24
9 8 6 5 5 7 8 9 5 6 12 4 13 3 10 17 14 15 16 12 9 8 1 5 4 3 4 4 1 3 2 1 2 3 2 2 4 1 8 33 17 4 7 15 21
9 8 7 7 7 8 7 3 2 2 7 4 5 3 12 16 9 14 17 10 9 6 4 6 6 3 3 2 1 1 1 3 2 3 0 3 4 2 6 11 19 14 9 13 19
9 8 8 8 8 9 8 4 5 2 4 4 6 7 8 11 7 14 16 9 7 5 8 5 4 4 4 1 1 2 1 3 3 4 2 2 5 5 6 9 22 26 21 18 16
11 9 8 8 7 7 8 7 5 5 2 4 7 6 7 9 5 10 13 6 4 6 5 1 4 5 1 3 4 2 2 3 2 6 2 3 4 5 3 4 16 29 30 33 26
11 11 9 8 4 7 5 6 5 5 4 6 5 4 7 9 3 8 8 4 4 4 4 2 5 5 3 3 2 3 2 3 2 3 2 3 3 4 3 5 8 24 31 37 36
8 11 10 8 6 5 5 4 4 2 5 8 5 8 14 3 8 4 8 3 2 3 3 3 5 5 3 1 1 3 2 1 2 2 2 3 0 5 1 5 9 14 29 41 35
8 8 11 8 7 6 5 4 3 6 3 7 5 7 8 5 5 9 4 4 2 1 2 4 4 2 1 4 2 2 0 3 3 2 1 3 2 4 4 6 4 9 26 31 37
10 9 8 8 6 6 5 3 5 6 3 7 4 5 3 4 6 5 5 6 4 6 7 6 2 3 1 2 3 5 5 3 4 3 4 1 1 8 7 6 5 4 7 16 26
10 10 8 8 7 6 5 4 6 2 4 2 3 4 3 5 2 5 4 6 2 4 2 4 7 4 4 1 3 2 0 3 2 2 3 2 5 5 5 5 8 10 7 11 16
11 11 8 6 6 5 3 4 5 5 1 2 4 2 4 1 2 6 2 2 2 1 2 4 5 4 1 1 1 1 1 1 3 1 1 3 6 8 4 4 6 14 11 7 11
12 11 8 5 5 4 3 4 3 3 5 2 0 1 3 4 5 5 2 2 2 1 2 2 4 2 4 1 3 1 2 1 2 2 4 4 4 5 7 9 8 8 12 10 8
11 5 3 3 4 1 2 5 4 5 5 4 4 3 4 3 1 3 4 3 3 2 1 3 3 5 2 1 1 1 2 2 1 3 3 3 5 6 5 5 8 10 9 9 8
6 2 2 3 2 1 2 4 2 3 5 3 3 5 5 3 3 3 4 4 4 3 1 3 2 4 7 2 3 2 3 4 3 4 3 2 8 5 6 5 8 12 7 5 6
6 4 4 4 2 2 3 3 3 4 4 4 4 5 3 4 2 5 3 2 5 4 4 4 2 4 7 2 1 3 4 4 2 2 6 3 7 2 3 6 7 8 7 7 4
3 2 1 4 3 2 2 4 3 3 2 4 3 3 2 3 5 4 3 2 4 4 2 4 3 6 6 8 2 6 5 5 5 3 5 9 15 14 9 9 11 11 10 11 9
3 3 1 2 1 2 1 2 2 3 5 6 2 7 7 4 2 5 4 4 3 2 3 3 5 5 8 10 6 16 17 10 11 12 10 3 10 13 8 9 17 16 14 15 16
2 2 1 3 3 2 3 4 5 3 6 4 5 1 7 7 9 6 5 4 6 3 5 2 4 2 6 8 5 8 12 12 15 15 10 15 25 17 22 13 14 20 13 17 20
5 5 2 3 2 3 4 5 3 3 6 6 8 3 4 15 24 24 18 13 11 7 7 6 4 2 6 3 6 9 7 5 4 5 6 8 10 3 5 7 14 12 12 19 23
Wind_Direction
308 315 329 334 358 13 11 9 13 12 12 15 13 17 19 40 51 35 22 0 21 332 327 321 291 322 224 220 197 151 292 255 182 164 192 177 159 141 179 144 180 187 165 174 166
302 307 325 343 9 16 12 15 17 17 18 17 17 18 13 11 12 18 9 343 324 323 322 327 292 3 202 202 209 150 154 249 303 278 193 159 124 165 159 159 201 186 174 162 171
316 312 337 2 17 19 12 15 20 21 19 14 14 14 10 357 350 360 357 353 342 334 317 312 310 17 148 187 198 183 175 319 2 355 24 148 104 266 130 227 210 200 177 171 175
4 352 351 16 21 18 14 14 15 16 12 10 12 11 1 16 34 357 356 354 1 10 16 353 5 54 74 355 330 242 258 263 338 340 315 204 185 13 209 326 295 232 196 175 180
30 19 357 15 14 9 7 12 8 8 8 7 9 17 22 19 352 349 354 360 10 15 27 28 36 13 49 292 330 160 291 324 340 347 13 106 208 204 338 293 306 215 185 182 183
14 11 353 356 351 355 357 360 359 1 1 2 6 5 20 23 357 350 347 3 17 28 33 34 6 353 333 314 104 297 286 279 310 306 257 105 19 193 257 322 286 190 178 184 186
2 354 340 334 319 334 337 342 349 356 347 353 353 357 9 3 4 5 4 18 15 11 3 353 351 346 322 325 330 279 329 277 211 268 336 102 202 198 224 292 220 190 179 183 191
350 339 334 326 308 317 325 335 338 344 349 359 359 347 350 6 4 5 7 2 349 360 345 332 329 318 307 308 4 51 48 118 285 188 232 180 220 213 172 274 221 197 187 191 196
350 348 1 354 331 321 323 324 323 335 354 344 5 355 7 358 9 7 359 353 5 358 21 345 339 348 359 40 21 16 104 96 315 241 147 219 244 89 169 179 248 222 178 202 201
4 4 24 25 352 336 331 325 315 341 1 359 6 347 1 345 357 6 2 356 350 6 52 22 31 45 24 38 49 1 20 10 255 327 316 140 250 26 205 170 223 277 206 215 214
11 14 16 8 3 351 348 349 330 336 20 53 330 308 327 352 5 6 7 358 359 25 17 11 55 28 306 341 142 61 72 335 280 355 251 240 273 206 213 214 210 262 258 232 235
15 12 7 1 4 10 9 53 56 345 318 350 345 338 343 347 329 8 4 19 22 357 345 19 18 307 276 257 26 36 33 313 294 353 162 28 275 262 186 221 205 203 276 268 237
16 11 1 358 2 10 27 47 28 2 311 333 337 329 342 335 322 338 357 350 43 11 7 43 301 325 43 40 38 19 37 357 301 331 59 330 291 273 218 200 208 185 221 245 228
8 7 3 358 7 7 18 15 6 8 63 312 357 1 338 327 286 338 349 356 1 339 346 267 329 358 7 66 59 37 330 321 331 43 259 1 282 276 236 236 197 210 210 228 228
350 1 1 5 357 0 358 349 355 347 40 319 317 335 334 15 320 347 346 331 312 306 50 284 345 355 3 307 17 238 350 44 351 102 48 333 31 267 182 237 236 223 216 223 230
337 344 356 355 355 352 348 338 330 44 293 336 317 354 5 4 349 315 341 342 317 3 355 267 295 182 269 313 300 294 152 54 62 73 42 299 158 263 223 221 226 234 232 225 229
336 330 339 345 342 345 337 333 34 96 13 311 321 360 347 303 331 30 358 1 28 12 5 332 318 310 330 356 11 31 51 342 357 7 220 216 128 261 276 232 226 265 315 250 244
333 325 319 329 334 336 332 47 70 202 243 347 320 323 326 2 316 335 16 2 15 68 11 27 334 8 342 42 186 17 1 155 264 286 291 302 231 252 245 285 281 273 287 276 257
330 320 307 297 322 330 334 41 206 198 185 317 318 1 325 327 325 14 29 262 251 93 65 7 284 311 284 318 327 181 119 313 105 11 346 248 291 293 320 1 324 300 293 284 277
324 318 289 266 310 327 67 236 215 182 142 112 207 88 298 297 3 18 302 232 239 151 175 188 304 236 282 344 10 240 166 59 21 268 261 282 274 236 316 317 324 325 309 318 308
323 315 265 253 299 240 186 231 232 216 180 155 207 239 232 293 263 291 263 259 188 145 150 157 151 283 320 170 231 39 285 38 133 172 249 291 258 209 237 277 296 295 306 315 329
315 335 238 250 299 99 208 204 217 188 201 217 204 212 211 206 257 265 251 239 177 166 225 185 162 279 244 205 158 205 248 174 150 251 229 185 264 227 223 273 296 306 286 301 322
311 264 263 221 234 269 277 276 241 163 216 177 235 213 193 225 258 208 249 287 186 170 181 182 246 319 338 65 61 226 205 191 124 96 212 207 260 185 249 278 293 284 262 258 255
287 347 219 205 210 211 272 251 263 228 223 197 217 167 158 255 234 276 258 247 209 240 209 168 202 196 222 234 163 246 228 205 178 188 245 228 277 267 297 292 283 274 256 239 219
223 238 211 274 256 225 282 305 243 258 219 212 242 217 179 221 245 233 237 280 198 205 180 168 240 200 258 263 263 265 265 232 210 236 226 224 249 276 268 264 271 271 278 228 212
246 209 188 275 271 183 196 238 218 251 173 234 212 223 193 211 203 236 206 204 236 179 182 200 257 208 277 272 242 270 262 237 233 246 255 265 272 274 276 291 274 275 257 226 220
224 236 221 244 195 134 219 218 225 165 252 238 214 169 199 236 251 261 267 252 237 188 194 177 190 151 266 357 315 285 237 191 206 212 192 217 253 297 288 291 285 294 260 248 236